Sterling, IL

4:27 PM CST on December 18, 2017 (GMT -0600)
Whiteside County-Bittorf

Weather History for KSQI - December, 2013

Change the Weather History Date:

Saturday, December 21, 2013

  Actual Average Record
Temperature  
Mean Temperature 28 °F -  
Max Temperature 30 °F 28 °F 51 °F (2015)
Min Temperature 26 °F 14 °F -2 °F (2000)
Degree Days  
Heating Degree Days 37    
Moisture  
Dew Point 25 °F    
Average Humidity 90    
Maximum Humidity 100    
Minimum Humidity 86    
Precipitation  
Precipitation 0.00 in - - ()
Sea Level Pressure  
Sea Level Pressure 29.78 in    
Wind  
Wind Speed 0 mph (North)    
Max Wind Speed 0 mph    
Max Gust Speed -    
Visibility 4 miles    
Events      
Averages and records for this station are not official NWS values.
T = Trace of Precipitation, MM = Missing Value Source: NWS Daily Summary

Daily Weather History Graph

Daily Weather History Graph

Search for Another Location

Airport or City:

Trip Planner

Search our weather history database for the weather conditions in past years. The results will help you decide how hot, cold, wet, or windy it might be!

Date:

Astronomy

Dec. 21, 2013 Rise Set
Actual Time 7:22 AM CST 4:31 PM CST
Civil Twilight 6:51 AM CST 5:02 PM CST
Nautical Twilight 6:15 AM CST 5:38 PM CST
Astronomical Twilight 5:42 AM CST 6:11 PM CST
Moon 8:51 PM CST (12/21) 9:45 AM CST (12/21)
Length of Visible Light 10h 11m
Length of Day
9h 08m
Waning Gibbous, 84% of the Moon is Illuminated
Dec 21
Waning Gibbous
Dec 25
Last Quarter
Jan 1
New
Jan 7
First Quarter
Jan 15
Full

Hourly Weather History & Observations

Time (CST) Temp. Dew Point Humidity Pressure Visibility Wind Dir Wind Speed Gust Speed Precip Events Conditions
12:15 AM 26.6 °F 23.0 °F 86% 29.82 in 5.0 mi Calm Calm - N/A   Overcast
12:35 AM 26.6 °F 24.8 °F 93% 29.81 in 5.0 mi Calm Calm - N/A   Overcast
12:55 AM 26.6 °F 24.8 °F 93% 29.82 in 5.0 mi Calm Calm - N/A   Overcast
1:15 AM 26.6 °F 24.8 °F 93% 29.82 in 4.0 mi Calm Calm - N/A   Overcast
1:35 AM 26.6 °F 24.8 °F 93% 29.82 in 2.5 mi Calm Calm - N/A   Overcast
1:55 AM 26.6 °F 24.8 °F 93% 29.85 in 1.8 mi Calm Calm - N/A   Overcast
2:15 AM 26.6 °F 24.8 °F 93% 29.84 in 2.0 mi Calm Calm - N/A   Overcast
2:35 AM 26.6 °F 24.8 °F 93% 29.85 in 3.0 mi Calm Calm - N/A   Overcast
2:55 AM 26.6 °F 24.8 °F 93% 29.84 in 2.0 mi Calm Calm - N/A   Overcast
3:15 AM 26.6 °F 24.8 °F 93% 29.81 in 1.5 mi Calm Calm - N/A   Overcast
3:35 AM 26.6 °F 24.8 °F 93% 29.82 in 1.5 mi Calm Calm - N/A   Overcast
3:55 AM 26.6 °F 24.8 °F 93% 29.81 in 1.5 mi Calm Calm - N/A   Overcast
4:15 AM 26.6 °F 24.8 °F 93% 29.80 in 1.0 mi Calm Calm - N/A   Overcast
4:35 AM 26.6 °F 24.8 °F 93% 29.77 in 3.0 mi Calm Calm - N/A   Overcast
4:55 AM 26.6 °F 24.8 °F 93% 29.79 in 5.0 mi Calm Calm - N/A   Overcast
5:15 AM 26.6 °F 23.0 °F 86% 29.83 in 6.0 mi Calm Calm - N/A   Overcast
5:35 AM 26.6 °F 23.0 °F 86% 29.85 in 5.0 mi Calm Calm - N/A   Overcast
5:55 AM 26.6 °F 23.0 °F 86% 29.83 in 5.0 mi Calm Calm - N/A   Overcast
6:15 AM 26.6 °F 23.0 °F 86% 29.82 in 4.0 mi Calm Calm - N/A   Overcast
6:35 AM 26.6 °F 23.0 °F 86% 29.84 in 5.0 mi Calm Calm - N/A   Overcast
6:55 AM 26.6 °F 23.0 °F 86% 29.84 in 5.0 mi Calm Calm - N/A   Overcast
7:15 AM 26.6 °F 23.0 °F 86% 29.80 in 5.0 mi Calm Calm - N/A   Overcast
7:35 AM 26.6 °F 23.0 °F 86% 29.81 in 3.0 mi Calm Calm - N/A   Overcast
7:55 AM 26.6 °F 23.0 °F 86% 29.80 in 3.0 mi Calm Calm - N/A   Overcast
8:15 AM 26.6 °F 23.0 °F 86% 29.81 in 3.0 mi Calm Calm - N/A   Overcast
8:35 AM 26.6 °F 23.0 °F 86% 29.81 in 3.0 mi Calm Calm - N/A   Overcast
8:55 AM 26.6 °F 23.0 °F 86% 29.82 in 3.0 mi Calm Calm - N/A   Overcast
9:15 AM 26.6 °F 23.0 °F 86% 29.86 in 4.0 mi Calm Calm - N/A   Overcast
9:35 AM 26.6 °F 24.8 °F 93% 29.86 in 4.0 mi Calm Calm - N/A   Overcast
9:55 AM 26.6 °F 24.8 °F 93% 29.84 in 3.0 mi Calm Calm - N/A   Overcast
10:15 AM 28.4 °F 24.8 °F 86% 29.85 in 3.0 mi Calm Calm - N/A   Overcast
10:35 AM 28.4 °F 24.8 °F 86% 29.83 in 3.0 mi Calm Calm - N/A   Overcast
10:55 AM 28.4 °F 24.8 °F 86% 29.84 in 3.0 mi Calm Calm - N/A   Overcast
11:15 AM 28.4 °F 26.6 °F 93% 29.82 in 3.0 mi Calm Calm - N/A   Overcast
11:35 AM 28.4 °F 24.8 °F 86% 29.83 in 5.0 mi Calm Calm - N/A   Overcast
11:55 AM 28.4 °F 24.8 °F 86% 29.84 in 5.0 mi Calm Calm - N/A   Overcast
12:15 PM 28.4 °F 24.8 °F 86% 29.83 in 5.0 mi Calm Calm - N/A   Overcast
12:35 PM 28.4 °F 24.8 °F 86% 29.83 in 5.0 mi Calm Calm - N/A   Overcast
12:55 PM 28.4 °F 24.8 °F 86% 29.81 in 4.0 mi Calm Calm - N/A   Overcast
1:15 PM 28.4 °F 24.8 °F 86% 29.81 in 5.0 mi Calm Calm - N/A   Overcast
1:35 PM 28.4 °F 26.6 °F 93% 29.78 in 4.0 mi Calm Calm - N/A   Overcast
1:55 PM 28.4 °F 26.6 °F 93% 29.78 in 5.0 mi Calm Calm - N/A   Overcast
2:15 PM 28.4 °F 26.6 °F 93% 29.77 in 5.0 mi Calm Calm - N/A   Overcast
2:35 PM 28.4 °F 26.6 °F 93% 29.75 in 4.0 mi Calm Calm - N/A   Overcast
2:55 PM 28.4 °F 26.6 °F 93% 29.76 in 3.0 mi Calm Calm - N/A   Overcast
3:15 PM 28.4 °F 24.8 °F 86% 29.78 in 3.0 mi Calm Calm - N/A   Overcast
3:35 PM 28.4 °F 26.6 °F 93% 29.78 in 1.8 mi Calm Calm - N/A   Overcast
3:55 PM 28.4 °F 26.6 °F 93% 29.79 in 0.8 mi Calm Calm - N/A   Overcast
4:15 PM 28.4 °F 26.6 °F 93% 29.79 in 1.0 mi Calm Calm - N/A   Overcast
4:35 PM 28.4 °F 26.6 °F 93% 29.78 in 1.0 mi Calm Calm - N/A   Overcast
4:55 PM 28.4 °F 28.4 °F 100% 29.76 in 1.5 mi Calm Calm - N/A   Overcast
5:15 PM 28.4 °F 26.6 °F 93% 29.75 in 1.5 mi Calm Calm - N/A   Overcast
5:35 PM 28.4 °F 26.6 °F 93% 29.76 in 1.8 mi Calm Calm - N/A   Overcast
5:55 PM 28.4 °F 26.6 °F 93% 29.76 in 2.5 mi Calm Calm - N/A   Overcast
6:15 PM 30.2 °F 26.6 °F 86% 29.75 in 2.5 mi Calm Calm - N/A   Overcast
6:35 PM 30.2 °F 28.4 °F 93% 29.76 in 2.0 mi Calm Calm - N/A   Overcast
6:55 PM 30.2 °F 26.6 °F 86% 29.75 in 2.0 mi Calm Calm - N/A   Overcast
7:15 PM 30.2 °F 28.4 °F 93% 29.74 in 1.8 mi Calm Calm - N/A   Overcast
7:35 PM 30.2 °F 26.6 °F 86% 29.73 in 2.5 mi Calm Calm - N/A   Overcast
7:55 PM 30.2 °F 26.6 °F 86% 29.75 in 3.0 mi Calm Calm - N/A   Overcast
8:15 PM 30.2 °F 28.4 °F 93% 29.74 in 3.0 mi Calm Calm - N/A   Overcast
8:35 PM 30.2 °F 26.6 °F 86% 29.70 in 3.0 mi Calm Calm - N/A   Overcast
8:55 PM 30.2 °F 26.6 °F 86% 29.68 in 3.0 mi Calm Calm - N/A   Overcast
9:15 PM 30.2 °F 26.6 °F 86% 29.67 in 5.0 mi Calm Calm - N/A   Overcast
9:35 PM 30.2 °F 26.6 °F 86% 29.66 in 6.0 mi Calm Calm - N/A   Overcast
9:55 PM 30.2 °F 26.6 °F 86% 29.63 in 7.0 mi Calm Calm - N/A   Overcast
10:15 PM 30.2 °F 26.6 °F 86% 29.62 in 7.0 mi Calm Calm - N/A   Overcast
10:35 PM 30.2 °F 26.6 °F 86% 29.66 in 8.0 mi Calm Calm - N/A   Overcast
10:55 PM 30.2 °F 26.6 °F 86% 29.64 in 7.0 mi Calm Calm - N/A   Overcast
11:15 PM 30.2 °F 26.6 °F 86% 29.67 in 8.0 mi Calm Calm - N/A   Overcast
11:35 PM 30.2 °F 28.4 °F 93% 29.66 in 5.0 mi Calm Calm - N/A   Overcast
11:55 PM 30.2 °F 28.4 °F 93% 29.66 in 3.0 mi Calm Calm - N/A   Overcast